Regional Weather Roundup
Issued by NWS

Home | Current Version | Previous Version | Text Only | Print | Product List | Glossary On
Versions: 1 2 3 4 5 6 7 8 9 10 11 12 13 14 15 16 17 18 19 20 21 22 23 24 25 26 27 28 29 30 31 32 33 34 35 36 37 38 39 40 41 42 43 44 45 46 47 48 49 50
000
ASUS42 KFFC 252310
RWRGA
WEATHER ROUNDUP FOR GEORGIA
NATIONAL WEATHER SERVICE PEACHTREE CITY GA
600 PM EST SAT FEB 25 2017

NOTE: "FAIR" INDICATES FEW OR NO CLOUDS BELOW 12,000 FEET WITH NO
SIGNIFICANT WEATHER AND/OR OBSTRUCTIONS TO VISIBILITY.

* = USE WITH CAUTION. THE STATIONS MARKED WITH AN ASTERISK MAY NOT
REPORT WEATHER SUCH AS PRECIPITATION, FOG, OR THUNDER AND ARE NOT
QUALITY CONTROLLED BY NWS.

THE REMARK "TC" DENOTES TEMPERATURE READING IN DEGREES CELSIUS.

GAZ001>058-260000-
NORTH GEORGIA

CITY           SKY/WX    TMP DP  RH WIND       PRES   REMARKS
ATLANTA        CLEAR     58  11  15 NW17      29.94R
ATHENS         CLEAR     60  16  18 W10G21    29.88R
CHAMBLEE       CLEAR     57  19  22 W13G25    29.93R
PEACHTREE CITY CLEAR     59  21  23 W9        29.95R
ROME           CLEAR     54  21  27 W13G21    29.97R
WEST ATLANTA   CLEAR     57  15  19 W15       29.94R
GAINESVILLE    CLEAR     56  17  21 W13G23    29.90R
CARTERSVILLE   CLEAR     54  20  26 MISG      29.96R


CITY           SKY/WX    TMP DP  RH WIND       PRES   REMARKS
DALTON*        CLEAR     52  21  30 NW12      29.98R
LAWRENCEVILLE* CLEAR     57  18  21 W21G30    29.91R
MARIETTA       CLEAR     56  21  25 W18G29    29.93R
KENNESAW*      CLEAR     55  18  22 W9        29.96R
CANTON*        CLEAR     55   1  11 NW10G21   29.94R
$$

GAZ059>098-102>109-260000-
CENTRAL GEORGIA

CITY           SKY/WX    TMP DP  RH WIND       PRES   REMARKS
AUGUSTA-BUSH   CLEAR     71  21  15 NW14G23   29.80R
AUGUSTA-DANIEL CLEAR     69  12  11 W13       29.83R
COLUMBUS       CLEAR     65  21  18 NW13      29.94R
MACON          CLEAR     68  20  16 W14G21    29.88R
ROBINS AFB     CLEAR     69  22  17 NW16      29.88R


CITY           SKY/WX    TMP DP  RH WIND       PRES   REMARKS
LAGRANGE*      CLEAR     62  31  31 NW16      29.96R
SYLVANIA*      CLEAR    N/A N/A N/A NW9       29.81R
MILLEDGEVILLE* CLEAR     64  30  27 W16G22    29.89R
$$

GAZ099>101-110>166-260000-
SOUTH GEORGIA

CITY           SKY/WX    TMP DP  RH WIND       PRES   REMARKS
SAVANNAH       PTCLDY    76  47  35 W16       29.79R
VALDOSTA       CLEAR     73  36  25 VRB5      29.88R
ALMA           CLEAR     74  33  22 W7        29.84R
ST SIMONS      CLEAR     76  57  51 W10       29.82R
FT STEWART     CLEAR     75  49  39 SW8       29.78S
ALBANY         CLEAR     72  22  15 NW9G22    29.92R
HUNTER AFB     CLEAR     76  61  60 W7        29.77R
MOODY AFB      CLEAR     74  26  16 W10       29.87R
BRUNSWICK      PTCLDY    75  61  60 W13       29.83R


CITY           SKY/WX    TMP DP  RH WIND       PRES   REMARKS
BAINBRIDGE*    CLEAR     73  32  21 W14       29.92R
MOULTRIE*      CLEAR     73  25  16 W8        29.90S
VIDALIA*       CLEAR     73  37  27 W6        29.84R
WAYCROSS*      CLEAR     77  42  28 W10G16    29.84R
DOUGLAS*       CLEAR     73  27  17 W9        29.88R
$$



USA.gov is the U.S. government's official web portal to all federal, state and local government web resources and services.